Regional Weather Roundup
Issued by NWS

Home | Current Version | Previous Version | Text Only | Print | Product List | Glossary On
Versions: 1 2 3 4 5 6 7 8 9 10 11 12 13 14 15 16 17 18 19 20 21 22 23 24 25 26 27 28 29 30 31 32 33 34 35 36 37 38 39 40 41 42 43 44 45 46 47 48 49 50
000
ASUS43 KDTX 301710
RWRMI
MICHIGAN HOURLY REGIONAL WEATHER ROUNDUP
NATIONAL WEATHER SERVICE DETROIT/PONTIAC MI
100 PM EDT TUE SEP 30 2014

NOTE: "FAIR" INDICATES FEW OR NO CLOUDS BELOW 12,000 FEET WITH NO
SIGNIFICANT WEATHER AND/OR OBSTRUCTION TO VISIBILITY.

MIZ047>049-052>055-059>063-066>070-074>076-081>083-301800-
SOUTHEAST LOWER MICHIGAN

CITY           SKY/WX    TMP DP  RH WIND       PRES   REMARKS
ADRIAN         CLOUDY    56  48  74 NE13      29.99S
ALMA           CLOUDY    54  46  75 NW5       30.02S
ANN ARBOR      CLOUDY    56  48  74 N9        29.98R
BAD AXE        RAIN      50  50 100 N14       29.98R
DETROIT CITY   CLOUDY    59  50  72 NW9       29.98R
DETROIT        CLOUDY    58  49  72 NW7       29.98R
FLINT          CLOUDY    54  48  80 N10       30.01R
GROSSE ILE     CLOUDY    57  52  82 NW9       29.96R
HILLSDALE      CLOUDY    54  51  92 N9        29.99R
HOWELL         CLOUDY    52  48  86 N3        30.00R

CITY           SKY/WX    TMP DP  RH WIND       PRES   REMARKS
JACKSON        CLOUDY    54  48  80 N8        29.99S
LAMBERTVILLE   CLOUDY    55  50  82 N5        29.98S
LANSING        CLOUDY    55  47  74 N9        30.01S
LAPEER         NOT AVBL
MASON          CLOUDY    53  47  79 N5        30.00S
MONROE         LGT RAIN  55  52  88 N9        29.96S
MT. CLEMENS    CLOUDY    56  51  85 NW9       29.94R
PONTIAC        CLOUDY    54  48  80 N10       29.97R
PORT HOPE        N/A     53  51  93 VRB3      29.96S
PORT HURON     CLOUDY    54  50  87 NW9       29.97R
TRI CITIES     CLOUDY    55  45  68 N10       30.02R
YPSILANTI      CLOUDY    59  49  69 NW8       29.99R
$$
MIZ043>046-050>051-056>058-064>065-071>073-077>080-301800-
SOUTHWEST LOWER MICHIGAN

CITY           SKY/WX    TMP DP  RH WIND       PRES   REMARKS
BATTLE CREEK   CLOUDY    54  46  74 N7        30.01S
BIG RAPIDS     CLOUDY    50  49  95 N10       30.04R
COLDWATER      CLOUDY    55  48  79 N6        30.00S
GRAND RAPIDS   CLOUDY    55  48  77 N7        30.02S
KALAMAZOO      CLOUDY    53  46  77 N7        30.02F
MARSHALL       CLOUDY    54  49  85 N5        29.99S
MUSKEGON       CLOUDY    56  45  66 N6        30.03F
$$
MIZ016>042-301800-
NORTHERN LOWER MICHIGAN

CITY           SKY/WX    TMP DP  RH WIND       PRES   REMARKS
ALPENA         CLOUDY    49  45  86 N13       30.03S
BEAVER ISLAND  CLOUDY    51  46  83 NE7       30.07R
BELLAIRE       CLOUDY    51  45  80 CALM      30.05S
CADILLAC       CLOUDY    47  44  89 N5        30.03S
CHARLEVOIX     CLOUDY    50  46  86 N8        30.08S
FRANKFORT      CLOUDY    51  45  80 NE7       30.06S
GAYLORD        CLOUDY    47  44  90 VRB5      30.04R
GRAYLING       CLOUDY    51  46  80 N6        30.03S
HARBOR SPRINGS CLOUDY    49  44  81 N6        30.05S
HOUGHTON LAKE  CLOUDY    51  44  77 N8        30.02S
OSCODA         CLOUDY    49  47  93 N15G22    29.99S
PELLSTON       CLOUDY    50  44  80 VRB6      30.06S
TRAVERSE CITY  CLOUDY    51  44  77 N6        30.05R
$$
MIZ007>008-015-301800-
EASTERN UPPER MICHIGAN

CITY           SKY/WX    TMP DP  RH WIND       PRES   REMARKS
MACKINAC ISLAN CLOUDY    50  45  83 NE6       30.06R
NEWBERRY       CLOUDY    48  43  85 N9        30.07S
S. S. MARIE    SUNNY     55  42  61 E6        30.06F
$$
MIZ004>006-011>014-085-301800-
CENTRAL UPPER MICHIGAN

CITY           SKY/WX    TMP DP  RH WIND       PRES   REMARKS
MANISTIQUE     CLOUDY    51  43  75 NW12      30.07F
SAWYER-GWINN   CLOUDY    45  39  81 N13       30.11S
$$
MIZ001>003-009>011-084-301800-
WESTERN UPPER MICHIGAN

CITY           SKY/WX    TMP DP  RH WIND       PRES   REMARKS
IRON MOUNTAIN  CLOUDY    47  39  74 VRB7      30.09F
HOUGHTON       SUNNY     49  38  65 E8        30.12F
COPPER HARBOR    N/A     48  38  68 VRB3      30.14F
$$

ABBREVIATIONS USED IN REMARKS
   TC - TEMPERATURE IN CELSIUS
  WCI - WIND CHILL INDEX
   HX - HEAT INDEX
  VSB - VISIBILITY



USA.gov is the U.S. government's official web portal to all federal, state and local government web resources and services.